Wind_Speed
30 29 27 25 26 24 20 14 17 16 16 16 15 16 17 19 17 17 13 9 7 5 4 5 7 5 7 9 10 10 11 12 11 11 8 6 7 6 5 5 7 9 9 8 8 8 10 10 8
32 31 28 28 27 26 22 19 18 17 17 17 15 14 15 16 16 14 9 6 7 7 6 5 6 8 9 10 9 8 11 12 10 9 6 6 5 4 3 6 9 8 7 7 7 8 9 7 6
34 33 31 30 28 29 24 21 20 17 16 16 14 13 13 14 15 12 6 4 6 7 6 6 8 9 9 11 11 10 15 13 9 7 4 4 2 2 4 7 8 6 6 6 7 7 6 4 5
36 35 33 32 30 31 24 25 23 19 17 15 11 12 11 12 12 9 3 4 5 5 7 7 9 10 10 13 12 14 17 13 11 8 4 2 1 3 6 8 6 6 6 7 7 6 4 3 4
34 33 34 31 32 28 28 28 24 21 18 15 10 10 10 10 11 7 3 2 3 4 5 7 10 13 14 14 14 16 16 14 11 8 5 2 1 6 8 7 5 6 7 7 6 5 4 4 3
31 27 29 33 36 30 29 29 23 22 19 18 10 8 8 8 11 7 4 2 1 4 3 6 11 14 17 15 14 15 15 13 11 8 6 4 3 7 7 6 6 7 6 6 6 5 3 1 1
29 27 25 31 36 31 30 30 25 21 19 18 13 8 9 7 9 7 6 4 1 3 5 8 14 16 18 14 14 12 13 13 10 8 6 4 5 8 7 5 6 6 5 5 6 4 2 2 2
29 28 25 28 32 30 31 30 24 23 19 18 16 9 9 9 9 8 8 7 5 4 6 10 15 16 15 14 14 13 11 10 9 8 8 7 8 9 6 5 5 5 5 7 6 5 4 5 6
33 30 25 26 29 28 29 29 24 24 19 19 19 12 11 11 10 10 8 8 8 6 7 11 14 16 15 14 15 15 14 13 12 12 10 9 10 9 8 8 8 8 8 7 7 7 7 7 9
36 30 31 31 31 26 28 28 25 24 22 20 19 15 13 13 11 11 9 10 11 11 10 11 14 15 17 17 16 15 14 13 13 12 12 12 13 12 10 10 10 9 8 8 9 9 10 10 11
39 31 30 31 29 25 26 29 27 28 24 23 19 18 15 16 14 12 11 12 13 12 13 13 13 15 15 15 15 15 14 13 13 13 14 13 13 11 11 10 9 9 9 10 11 11 12 13 13
42 36 34 30 32 28 27 26 28 29 25 24 22 21 18 18 17 14 13 13 14 15 15 15 15 15 14 13 11 10 9 9 10 10 13 13 12 12 12 12 11 10 10 12 13 13 14 15 16
45 41 38 34 33 32 27 29 32 30 27 24 24 23 21 20 19 16 14 16 16 17 16 16 17 17 15 14 12 11 11 11 11 11 13 14 15 14 14 14 13 13 13 14 14 15 15 17 18
46 43 40 38 36 36 29 31 33 28 27 25 24 25 23 23 21 19 17 16 17 18 19 18 18 17 16 15 15 14 15 15 13 12 12 15 16 16 15 15 14 15 15 17 17 16 17 18 19
45 44 43 39 39 32 28 33 30 32 29 25 26 25 25 24 24 21 18 17 18 19 21 21 21 18 19 16 15 14 16 18 18 16 13 14 16 17 18 17 18 18 20 20 19 19 19 19 19
47 46 44 42 41 40 39 27 26 26 29 29 28 26 27 25 25 22 21 19 18 20 21 24 25 23 21 21 20 20 20 20 21 20 18 18 19 20 20 20 22 23 24 23 22 21 21 22 23
47 48 46 43 43 43 44 30 33 30 28 28 29 28 27 27 25 24 24 22 19 20 23 22 24 25 26 25 24 25 24 23 21 22 21 22 22 22 23 24 25 26 27 26 25 25 25 25 26
47 44 45 44 45 45 43 29 34 37 29 29 31 32 29 27 26 28 25 25 22 20 21 22 25 25 27 27 26 24 22 22 21 23 25 24 25 27 27 27 28 29 28 28 28 29 30 30 30
49 47 46 43 45 48 47 42 35 41 41 32 28 28 30 28 31 30 27 27 25 23 22 24 23 27 27 27 27 28 27 27 26 25 26 26 30 30 30 30 30 31 31 31 32 34 34 34 35
50 50 50 47 48 53 51 48 42 41 42 34 30 29 22 25 30 30 29 29 26 26 25 23 25 26 27 27 28 28 29 27 27 27 28 31 31 31 31 32 31 31 33 35 36 37 38 39 38
52 50 48 50 49 52 55 55 47 47 46 35 31 30 24 20 23 26 31 31 32 28 27 29 29 27 27 28 28 27 26 26 26 29 32 33 33 33 31 31 32 33 34 37 39 40 40 41 41
56 52 50 52 52 52 56 61 51 49 47 44 35 27 22 23 23 25 29 33 33 30 33 32 32 31 30 29 29 28 28 26 28 30 31 31 31 31 32 33 34 34 35 38 39 40 40 41 43
48 53 56 55 56 56 57 63 56 51 50 42 39 37 29 27 28 27 26 28 35 35 32 33 35 35 34 33 30 31 29 29 31 30 30 31 32 32 33 33 34 35 36 37 38 39 40 41 43
51 53 53 56 57 63 56 61 67 54 50 43 42 38 35 34 31 29 29 25 24 32 35 37 36 34 37 39 35 32 32 34 34 32 32 33 32 32 30 33 35 36 37 38 40 42 42 44 46
54 56 57 57 59 59 60 66 71 60 54 47 44 42 40 39 35 32 28 26 26 25 35 37 38 35 35 39 40 37 37 37 35 35 34 34 33 32 33 36 37 38 40 42 43 44 45 47 49
49 51 56 60 62 55 64 66 68 64 59 50 43 44 43 41 37 35 33 30 27 28 25 26 29 30 34 37 40 42 41 38 36 35 35 36 36 36 37 38 40 42 44 46 47 48 48 50 51
43 43 41 48 52 58 64 55 55 60 62 58 49 46 43 42 38 37 33 33 33 33 31 32 30 29 31 35 39 41 43 39 36 37 38 38 38 39 42 42 43 47 49 50 53 54 53 55 55
47 43 38 41 44 47 48 51 53 54 54 57 53 48 46 46 44 39 37 35 35 34 35 37 36 35 33 32 36 39 39 39 37 38 39 38 38 38 40 44 49 52 54 55 56 56 56 58 58
49 48 40 42 48 46 42 40 39 47 49 52 51 46 48 48 46 42 38 38 38 37 38 37 38 39 37 34 33 34 37 39 35 28 28 34 39 44 47 48 50 52 53 54 56 56 58 60 60
50 52 49 50 47 51 52 42 35 38 37 38 43 42 44 48 47 46 43 40 39 39 41 38 39 40 40 39 34 33 33 35 38 41 43 44 43 43 44 47 49 49 51 51 52 52 54 57 58
Wind_Direction
222 222 225 225 236 242 246 252 267 279 294 306 315 326 334 335 350 356 13 1 23 48 156 183 172 162 144 131 127 96 111 118 121 117 119 129 128 121 119 118 126 129 130 130 132 123 117 109 105
225 224 227 233 236 242 243 252 264 279 294 301 309 326 326 336 347 355 19 22 48 64 97 135 159 151 160 146 137 119 124 128 125 115 125 124 108 98 106 126 133 134 138 140 130 124 117 115 114
237 230 228 233 240 246 245 253 265 272 285 296 301 316 318 337 342 351 19 11 48 57 85 136 149 149 156 157 157 136 134 135 128 129 105 92 78 73 125 135 141 147 147 143 137 129 120 123 106
239 237 236 235 241 246 247 249 257 264 276 286 292 301 310 332 337 342 356 350 61 72 84 129 150 151 151 157 150 139 138 143 145 139 121 118 86 140 146 149 152 157 155 148 150 141 151 134 105
240 246 240 238 242 244 243 244 247 257 270 275 281 286 298 324 328 328 308 288 50 76 106 126 134 148 154 156 149 145 146 151 154 157 152 153 164 163 157 159 167 171 165 166 169 178 183 161 134
235 241 238 238 242 242 243 247 245 251 269 266 266 268 280 315 314 309 279 262 33 77 114 140 136 150 156 157 160 157 154 160 164 168 172 186 177 170 172 182 188 182 189 191 198 204 209 197 157
236 236 238 235 238 237 239 243 245 248 259 260 260 257 279 289 301 293 263 224 157 117 148 160 140 157 162 162 160 159 163 173 171 182 200 200 185 186 194 207 202 205 210 221 234 240 237 255 267
241 236 235 237 239 237 238 243 245 252 252 251 251 244 253 269 281 279 251 217 183 156 165 163 157 160 170 172 175 179 178 182 189 203 213 209 203 200 214 224 217 232 240 249 256 264 263 266 273
235 245 240 241 244 236 237 244 241 248 243 248 251 237 237 253 266 268 238 223 200 191 173 177 166 166 174 180 182 190 192 200 206 216 220 213 210 212 220 219 221 233 244 260 272 271 269 272 279
237 244 245 243 246 245 238 239 240 238 237 243 246 241 230 246 255 259 230 217 212 200 189 180 176 174 171 179 190 197 204 217 222 230 233 219 211 218 222 220 230 246 265 275 279 279 279 282 286
242 243 248 247 247 244 247 238 236 239 235 240 242 245 231 238 249 253 236 220 216 212 202 190 190 185 188 193 203 207 216 230 238 240 241 233 228 238 242 237 246 259 270 276 280 284 289 294 297
241 242 242 248 246 241 239 232 228 235 235 235 244 239 234 234 247 242 245 228 219 216 210 198 198 201 194 200 210 223 236 249 263 266 246 239 243 251 254 250 258 267 268 276 284 288 293 295 300
239 239 240 241 241 239 240 232 230 228 234 235 241 244 239 232 243 248 244 231 225 214 206 211 204 205 208 212 221 234 251 262 269 273 255 238 234 241 250 256 264 269 271 280 282 285 294 298 299
238 239 239 237 235 235 237 239 229 227 230 235 236 241 241 233 235 242 246 241 225 216 209 212 215 213 216 220 223 230 240 249 260 267 262 250 250 250 255 256 265 271 274 277 282 286 286 290 299
236 236 239 236 234 232 236 238 241 237 238 236 235 238 239 239 235 237 237 244 235 223 214 215 224 226 229 233 244 246 253 261 261 258 255 251 249 254 256 257 260 261 263 267 271 276 280 290 299
233 236 236 237 238 236 240 235 240 238 240 238 231 240 240 237 234 242 241 238 241 235 227 227 229 231 238 244 249 257 267 270 263 263 263 253 247 248 251 253 253 255 259 263 270 279 287 292 296
232 238 237 235 239 242 241 233 239 240 240 239 235 236 239 240 233 238 245 242 239 242 237 232 238 236 238 239 246 253 258 268 266 260 265 262 257 254 254 253 252 258 263 268 274 280 284 288 295
235 237 239 236 240 242 244 232 242 244 236 236 241 239 236 236 237 236 241 246 243 241 246 241 237 239 239 244 246 249 253 251 249 247 253 260 263 260 256 257 259 261 267 273 276 278 281 287 291
230 229 231 231 236 240 240 236 236 240 241 238 245 245 243 241 237 240 241 246 244 241 238 244 244 243 245 243 246 246 241 249 252 256 262 265 263 258 257 260 263 266 269 271 274 277 281 283 287
231 230 230 229 232 240 242 238 235 242 241 244 243 249 250 248 247 246 243 246 248 245 245 245 244 245 244 242 241 248 252 256 256 261 259 256 256 256 257 262 268 271 270 271 272 275 278 284 288
235 236 233 232 230 238 242 242 236 239 246 251 252 250 251 255 255 254 249 244 245 246 246 246 244 247 248 249 247 245 247 251 254 251 250 251 256 263 266 265 266 270 273 274 275 276 280 284 289
236 237 236 234 233 233 242 244 240 241 245 246 247 246 255 257 243 247 248 251 251 246 245 248 252 247 246 247 251 247 245 244 247 251 255 259 261 263 263 265 267 270 272 274 277 280 284 288 291
238 237 240 238 237 235 237 247 236 242 246 248 247 249 256 256 252 254 254 249 255 252 249 253 255 259 257 250 247 251 250 246 246 247 251 255 259 262 266 270 272 273 274 277 281 283 286 289 292
237 237 239 240 239 236 238 245 243 238 244 245 247 251 254 256 255 253 256 261 262 256 253 251 256 260 261 257 250 246 247 248 247 248 249 252 256 262 268 271 272 276 280 280 282 285 288 291 292
233 236 238 240 240 245 241 239 248 243 242 243 246 249 250 254 257 256 257 260 263 264 248 249 250 255 259 257 253 248 246 248 251 254 259 263 265 267 268 270 277 280 282 283 285 287 290 291 292
232 236 240 244 245 246 245 240 250 252 250 247 248 249 253 254 255 256 259 259 260 254 260 260 261 258 257 258 254 252 251 252 253 257 261 263 267 270 272 274 275 278 280 282 284 285 286 286 288
232 238 244 248 251 250 249 249 248 247 249 248 242 245 250 252 252 255 257 262 256 251 246 254 259 261 263 259 255 253 253 253 255 257 259 263 266 269 270 273 278 278 279 280 281 281 284 286 289
240 238 242 243 249 252 254 250 247 248 247 249 243 241 241 250 254 254 254 254 260 255 251 253 253 258 261 266 263 259 257 254 254 257 262 267 269 267 268 268 271 273 274 277 280 285 287 288 289
238 238 229 242 243 251 253 251 245 250 248 247 249 240 237 241 246 250 251 253 250 255 252 249 255 253 256 258 259 255 250 253 260 258 257 255 258 263 268 272 275 278 282 285 286 287 288 289 291
234 239 238 240 251 254 260 250 257 259 264 257 254 252 239 236 240 245 248 249 249 248 249 251 252 255 253 252 253 253 249 242 244 249 255 260 267 272 276 276 277 280 284 288 290 290 291 291 292
Height
5865 5868 5870 5873 5876 5875 5877 5880 5879 5879 5880 5880 5879 5878 5876 5874 5872 5872 5867 5867 5865 5863 5863 5863 5863 5865 5865 5866 5868 5869 5870 5872 5874 5875 5875 5876 5876 5876 5877 5878 5878 5879 5879 5879 5879 5879 5880 5880 5880
5863 5865 5867 5870 5872 5873 5876 5878 5878 5878 5879 5879 5879 5878 5876 5874 5872 5870 5869 5869 5867 5864 5863 5864 5865 5866 5867 5868 5870 5871 5873 5875 5876 5876 5877 5877 5877 5877 5878 5878 5879 5880 5880 5881 5881 5881 5881 5881 5881
5860 5863 5865 5866 5868 5870 5875 5875 5876 5877 5878 5878 5879 5878 5876 5873 5872 5871 5870 5870 5868 5866 5865 5865 5866 5867 5868 5870 5872 5872 5874 5875 5877 5878 5878 5878 5878 5878 5879 5879 5880 5881 5882 5882 5882 5882 5881 5881 5881
5857 5860 5863 5864 5865 5867 5872 5873 5874 5875 5876 5877 5878 5878 5876 5873 5872 5871 5871 5871 5870 5868 5867 5866 5867 5868 5869 5871 5872 5873 5874 5875 5877 5878 5879 5879 5879 5879 5880 5881 5882 5882 5882 5883 5882 5882 5882 5882 5881
5855 5856 5858 5862 5861 5865 5868 5869 5873 5873 5873 5875 5877 5876 5875 5872 5872 5872 5871 5872 5871 5870 5868 5868 5867 5868 5870 5872 5873 5874 5875 5876 5877 5878 5879 5879 5880 5880 5881 5882 5883 5883 5883 5883 5883 5883 5882 5882 5882
5852 5854 5856 5858 5857 5860 5863 5866 5871 5871 5871 5873 5874 5875 5874 5872 5871 5872 5872 5872 5872 5870 5869 5869 5867 5868 5870 5872 5874 5875 5876 5876 5877 5878 5878 5879 5880 5881 5882 5882 5883 5883 5884 5884 5884 5883 5883 5883 5883
5848 5850 5852 5853 5853 5857 5860 5862 5867 5869 5870 5870 5871 5873 5872 5872 5871 5872 5873 5872 5872 5870 5871 5870 5869 5870 5871 5873 5875 5876 5877 5877 5877 5878 5879 5879 5880 5881 5882 5883 5883 5884 5885 5885 5885 5885 5884 5883 5882
5844 5846 5849 5849 5850 5854 5857 5860 5863 5866 5868 5868 5869 5871 5870 5871 5870 5871 5873 5873 5873 5872 5872 5872 5870 5871 5872 5874 5875 5877 5877 5877 5878 5878 5878 5879 5880 5881 5882 5883 5884 5885 5886 5886 5886 5885 5884 5883 5881
5839 5843 5846 5847 5847 5850 5852 5857 5860 5862 5865 5865 5867 5868 5869 5869 5869 5870 5871 5872 5873 5873 5873 5873 5871 5871 5873 5874 5875 5876 5876 5877 5877 5878 5878 5878 5879 5880 5881 5882 5883 5884 5885 5886 5885 5884 5883 5882 5880
5834 5840 5840 5843 5844 5847 5848 5852 5857 5859 5861 5862 5864 5865 5867 5868 5868 5868 5870 5871 5872 5873 5874 5874 5872 5872 5873 5874 5875 5876 5877 5878 5878 5879 5878 5878 5878 5879 5880 5881 5882 5884 5885 5885 5884 5884 5882 5882 5880
5831 5836 5836 5838 5841 5844 5846 5848 5852 5854 5857 5858 5861 5862 5865 5867 5866 5866 5867 5869 5870 5872 5873 5874 5874 5874 5874 5875 5876 5877 5878 5878 5879 5878 5878 5878 5879 5880 5881 5881 5881 5882 5883 5883 5882 5882 5881 5880 5879
5825 5831 5831 5835 5837 5839 5842 5844 5846 5849 5853 5855 5857 5859 5861 5864 5864 5864 5865 5867 5868 5869 5872 5873 5874 5875 5875 5876 5878 5879 5879 5879 5878 5877 5877 5878 5880 5880 5880 5880 5881 5881 5881 5881 5880 5880 5879 5878 5877
5818 5824 5828 5830 5832 5834 5837 5839 5842 5845 5848 5850 5853 5856 5859 5860 5861 5862 5863 5864 5866 5867 5869 5872 5873 5873 5874 5875 5876 5877 5877 5877 5877 5876 5876 5876 5876 5877 5878 5879 5880 5879 5879 5878 5877 5876 5876 5875 5873
5811 5817 5822 5825 5828 5831 5833 5834 5835 5842 5844 5846 5849 5852 5854 5856 5858 5859 5861 5861 5863 5865 5866 5869 5871 5872 5872 5873 5873 5874 5874 5874 5874 5874 5874 5875 5876 5876 5876 5876 5877 5877 5877 5875 5874 5873 5872 5871 5870
5803 5810 5815 5821 5823 5826 5827 5830 5835 5838 5841 5842 5844 5847 5850 5851 5854 5856 5858 5859 5860 5862 5864 5864 5867 5869 5870 5870 5871 5871 5871 5871 5871 5871 5871 5872 5872 5873 5873 5873 5873 5873 5871 5870 5870 5868 5867 5866 5866
5795 5801 5809 5817 5818 5822 5823 5829 5829 5832 5836 5838 5839 5841 5845 5847 5849 5852 5853 5856 5857 5858 5860 5861 5862 5865 5865 5867 5867 5869 5869 5868 5869 5868 5868 5868 5868 5868 5868 5868 5868 5867 5866 5866 5865 5865 5864 5863 5861
5788 5796 5803 5810 5812 5814 5816 5825 5822 5826 5831 5833 5835 5836 5840 5842 5845 5847 5848 5851 5853 5854 5855 5857 5857 5859 5861 5861 5863 5863 5864 5865 5866 5866 5866 5865 5864 5864 5865 5864 5864 5864 5863 5863 5862 5861 5859 5858 5857
5782 5790 5795 5803 5805 5805 5808 5818 5817 5820 5826 5829 5830 5831 5834 5839 5840 5841 5844 5846 5849 5850 5851 5852 5854 5853 5855 5856 5857 5858 5860 5860 5861 5862 5861 5862 5861 5861 5860 5859 5859 5859 5859 5858 5857 5856 5854 5853 5851
5774 5779 5784 5793 5795 5796 5801 5809 5812 5812 5817 5824 5828 5828 5830 5834 5834 5837 5840 5842 5844 5845 5847 5848 5850 5849 5850 5850 5851 5852 5853 5854 5856 5856 5857 5857 5856 5856 5855 5855 5854 5854 5853 5853 5851 5850 5849 5846 5845
5764 5769 5777 5782 5786 5789 5793 5801 5808 5806 5810 5818 5822 5824 5826 5828 5830 5833 5835 5837 5840 5840 5842 5844 5843 5844 5845 5845 5844 5847 5847 5850 5850 5851 5852 5851 5850 5850 5851 5850 5850 5850 5848 5846 5844 5842 5841 5839 5838
5758 5764 5770 5774 5777 5780 5783 5789 5800 5803 5803 5809 5816 5821 5822 5825 5826 5828 5829 5831 5834 5835 5836 5836 5837 5839 5841 5841 5841 5842 5843 5844 5845 5844 5843 5844 5845 5845 5845 5844 5843 5842 5841 5839 5837 5835 5834 5832 5830
5750 5757 5759 5763 5766 5771 5772 5775 5791 5796 5799 5802 5810 5816 5819 5820 5822 5822 5823 5824 5828 5831 5828 5830 5832 5833 5835 5836 5836 5836 5838 5838 5838 5838 5838 5839 5839 5840 5840 5838 5837 5836 5835 5833 5831 5829 5828 5827 5824
5744 5745 5747 5750 5753 5758 5764 5764 5784 5790 5794 5802 5806 5809 5814 5816 5815 5818 5819 5821 5822 5824 5825 5825 5826 5828 5829 5830 5831 5831 5832 5833 5831 5832 5832 5832 5831 5831 5832 5833 5831 5830 5828 5828 5825 5823 5822 5820 5817
5730 5733 5736 5739 5741 5739 5764 5758 5767 5785 5790 5797 5799 5801 5804 5809 5811 5813 5813 5815 5817 5817 5817 5818 5820 5821 5821 5822 5824 5825 5825 5825 5825 5826 5827 5825 5826 5826 5826 5824 5823 5822 5822 5820 5818 5816 5815 5812 5810
5720 5724 5726 5727 5727 5739 5751 5745 5756 5772 5782 5789 5792 5794 5796 5799 5804 5808 5808 5809 5811 5811 5810 5810 5811 5813 5813 5814 5816 5818 5818 5818 5819 5819 5820 5821 5821 5821 5819 5816 5815 5814 5813 5812 5810 5808 5806 5803 5800
5712 5715 5718 5718 5720 5736 5724 5730 5749 5762 5772 5781 5785 5786 5789 5791 5795 5799 5802 5803 5804 5805 5805 5805 5804 5805 5806 5806 5808 5809 5811 5812 5813 5814 5813 5813 5814 5813 5812 5811 5807 5806 5804 5802 5800 5797 5795 5791 5789
5704 5707 5714 5711 5714 5717 5717 5733 5740 5747 5756 5765 5773 5776 5779 5781 5785 5789 5792 5795 5796 5798 5799 5799 5799 5799 5799 5799 5799 5800 5801 5804 5805 5805 5805 5806 5806 5805 5802 5801 5800 5797 5794 5792 5789 5786 5785 5781 5780
5696 5700 5703 5704 5706 5706 5712 5721 5729 5737 5744 5748 5757 5764 5767 5769 5773 5779 5781 5785 5788 5790 5791 5791 5792 5792 5792 5791 5791 5791 5792 5794 5795 5796 5797 5797 5796 5795 5794 5792 5790 5786 5783 5781 5778 5777 5775 5771 5769
5685 5689 5695 5697 5698 5702 5707 5713 5722 5723 5729 5735 5741 5750 5754 5758 5762 5766 5771 5774 5777 5780 5782 5783 5784 5784 5784 5784 5783 5781 5783 5785 5783 5785 5787 5787 5786 5784 5783 5781 5779 5777 5774 5771 5768 5767 5763 5760 5758
5675 5681 5685 5689 5696 5693 5696 5705 5713 5715 5717 5723 5729 5735 5741 5746 5750 5754 5758 5762 5765 5767 5771 5773 5774 5776 5776 5776 5776 5776 5775 5775 5776 5776 5776 5775 5776 5774 5773 5770 5768 5767 5764 5761 5758 5755 5752 5748 5746